This demonstration page uses our WeatherBlox Daily Observations layout. Learn more.

Left ArrowRight Arrow

39.29038, -76.61219

Hourly Observations for May 27, 2020

Temp ( °F °C ) Dew Point ( °F °C ) Humidity (%) Winds ( mph kmh ) Pressure ( in mb ) Visibility ( mi km ) Precip ( " mm )
12:54 am 00:54 undefined 69 20.6 64 17.8 84 84 undefined N/A 30.18 1022 N/A N/A
1:54 am 01:54 undefined 69 20.6 65 18.3 87 87 undefined N/A 30.19 1022 N/A N/A
2:54 am 02:54 undefined 69 20.6 65 18.3 87 87 undefined N/A 30.19 1022 N/A N/A
3:54 am 03:54 undefined 68 20 65 18.3 90 90 undefined N/A 30.19 1023 N/A N/A
4:54 am 04:54 undefined 68 20 64 17.8 87 87 undefined N/A 30.19 1022 N/A N/A
5:54 am 05:54 undefined 67 19.4 64 17.8 91 91 undefined N/A 30.20 1023 N/A N/A
6:54 am 06:54 undefined 67 19.4 64 17.8 91 91 undefined N/A 30.21 1023 N/A N/A
7:54 am 07:54 undefined 66 18.9 63 17.2 90 90 undefined N/A 30.22 1024 N/A N/A
8:54 am 08:54 undefined 67 19.4 63 17.2 87 87 undefined N/A 30.22 1024 N/A N/A
9:54 am 09:54 undefined 68 20 64 17.8 87 87 undefined N/A 30.22 1024 N/A N/A
10:54 am 10:54 undefined 72 22.2 65 18.3 79 79 undefined N/A 30.22 1023 N/A N/A
11:54 am 11:54 undefined 75 23.9 65 18.3 71 71 undefined N/A 30.21 1023 N/A N/A
12:54 pm 12:54 undefined 77 25 64 17.8 64 64 undefined N/A 30.20 1023 N/A N/A
1:54 pm 13:54 undefined 78 25.6 65 18.3 64 64 undefined N/A 30.19 1022 N/A N/A
2:54 pm 14:54 undefined 78 25.6 64 17.8 62 62 undefined N/A 30.18 1022 N/A N/A
3:54 pm 15:54 undefined 80 26.7 66 18.9 62 62 undefined N/A 30.16 1021 N/A N/A
4:54 pm 16:54 undefined 80 26.7 65 18.3 60 60 undefined N/A 30.15 1021 N/A N/A
5:54 pm 17:54 undefined 78 25.6 64 17.8 62 62 undefined N/A 30.14 1021 N/A N/A
6:54 pm 18:54 undefined 77 25 64 17.8 64 64 undefined N/A 30.14 1021 N/A N/A
7:54 pm 19:54 undefined 76 24.4 64 17.8 67 67 undefined N/A 30.14 1021 N/A N/A
8:54 pm 20:54 undefined 75 23.9 65 18.3 71 71 undefined N/A 30.15 1021 N/A N/A
9:54 pm 21:54 undefined 73 22.8 65 18.3 76 76 undefined N/A 30.16 1021 N/A N/A
10:54 pm 22:54 undefined 73 22.8 66 18.9 79 79 undefined N/A 30.16 1022 N/A N/A
11:54 pm 23:54 undefined 73 22.8 66 18.9 79 79 undefined N/A 30.17 1022 N/A N/A

Powered by AerisWeather